This demonstration page uses our WeatherBlox Daily Observations layout. Learn more.

Left ArrowRight Arrow

Hourly Observations for June 25, 2021

Temp ( °F °C ) Dew Point ( °F °C ) Humidity (%) Winds ( mph kmh ) Pressure ( in mb ) Visibility ( mi km ) Precip ( " mm )
12:15 am 00:15 Clear 65 18.6 63 17.1 91 91 N N/A 29.86 1011 10 16 N/A
12:35 am 00:35 Clear 65 18.2 63 17 93 93 N N/A 29.86 1011 7 11 N/A
12:55 am 00:55 Clear 65 18.5 63 17 91 91 N N/A 29.86 1011 10 16 N/A
1:15 am 01:15 Clear 67 19.2 64 17.5 90 90 WNW 6 9 29.84 1010 10 16 N/A
1:35 am 01:35 Clear 66 18.8 64 17.5 92 92 N N/A 29.83 1010 10 16 N/A
1:55 am 01:55 Clear 66 18.8 64 17.5 92 92 WNW 6 9 29.82 1010 7 11 N/A
2:15 am 02:15 Clear 65 18.6 63 17.4 93 93 S 3 6 29.82 1010 7 11 N/A
2:35 am 02:35 Clear 65 18.5 63 17.3 93 93 S 5 7 29.85 1011 7 11 N/A
2:55 am 02:55 Clear 66 19.1 64 17.6 91 91 E 5 7 29.83 1010 7 11 N/A
3:15 am 03:15 Clear 67 19.7 64 17.5 87 87 E 6 9 29.82 1010 10 16 N/A
3:35 am 03:35 Clear 67 19.7 64 17.5 87 87 ESE 6 9 29.82 1010 10 16 N/A
3:55 am 03:55 Clear 67 19.6 64 17.5 88 88 SE 5 7 29.83 1010 10 16 N/A
4:15 am 04:15 Clear 67 19.5 64 17.5 88 88 E 7 11 29.82 1010 7 11 N/A
4:35 am 04:35 Clear 67 19.5 63 17.2 87 87 E 6 9 29.83 1010 10 16 N/A
4:55 am 04:55 Clear 66 18.9 63 17.2 90 90 N N/A 29.82 1010 7 11 N/A
5:15 am 05:15 Clear 66 19 63 17.3 90 90 ESE 3 6 29.83 1010 7 11 N/A
5:35 am 05:35 Clear 67 19.2 64 17.5 90 90 ESE 3 6 29.82 1010 7 11 N/A
5:55 am 05:55 Clear 66 19.1 63 17.4 90 90 N N/A 29.82 1010 7 11 N/A
6:15 am 06:15 Sunny with Nearby Thunderstorms 65 18.1 63 17.1 94 94 SW 3 6 29.82 1010 3 5 N/A
6:35 am 06:35 Sunny with Mist and Fog 64 17.8 63 17 95 95 SW 3 6 29.83 1010 3 4 N/A
6:55 am 06:55 Sunny with Mist and Fog 65 18.5 64 17.5 94 94 SW 3 6 29.83 1010 3 5 N/A
7:15 am 07:15 Sunny with Mist and Fog 65 18.6 64 17.7 95 95 N N/A 29.81 1010 3 5 N/A
7:35 am 07:35 Sunny with Mist and Fog 66 19.1 64 18 93 93 WNW 6 9 29.82 1010 3 5 N/A
7:55 am 07:55 Sunny with Mist and Fog 67 19.3 65 18.1 93 93 NNW 6 9 29.82 1010 3 5 N/A
8:15 am 08:15 Sunny with Mist and Fog 67 19.3 64 18 92 92 N 7 11 29.82 1010 4 6 N/A
8:35 am 08:35 Sunny with Mist and Fog 67 19.7 65 18.1 91 91 N 7 11 29.82 1010 4 6 N/A
8:55 am 08:55 Mostly Cloudy with Mist and Fog 69 20.4 65 18.4 88 88 NNW 5 7 29.81 1009 5 8 N/A
9:15 am 09:15 Hazy 70 21 65 18.5 86 86 NW 8 13 29.80 1009 5 8 N/A
9:35 am 09:35 Sunny 70 21.3 65 18.6 85 85 NNW 6 9 29.81 1010 7 11 N/A
9:55 am 09:55 Sunny 73 22.6 66 18.8 79 79 N N/A 29.80 1009 7 11 N/A
10:15 am 10:15 Partly Cloudy 74 23.1 66 18.8 77 77 NNE 6 9 29.79 1009 10 16 N/A
10:35 am 10:35 Mostly Cloudy 76 24.5 66 19 72 72 NNE 6 9 29.76 1008 10 16 N/A
10:55 am 10:55 Partly Cloudy 76 24.6 66 18.8 70 70 ENE 7 11 29.77 1008 10 16 N/A
11:15 am 11:15 Partly Cloudy 78 25.4 66 19.1 68 68 ENE 9 15 29.76 1008 10 16 N/A
11:35 am 11:35 Partly Cloudy 78 25.7 65 18.5 65 65 E 7 11 29.76 1008 10 16 N/A
11:55 am 11:55 Partly Cloudy 79 26.2 65 18.1 61 61 ENE 5 7 29.76 1008 10 16 N/A
12:15 pm 12:15 Partly Cloudy 81 27.4 64 17.7 55 55 ENE 9 15 29.74 1007 10 16 N/A
12:35 pm 12:35 Mostly Cloudy 82 27.5 64 18 56 56 ENE 9 15 29.74 1007 10 16 N/A
12:55 pm 12:55 Cloudy 80 26.7 62 16.7 54 54 ENE 6 9 29.74 1007 10 16 N/A
1:15 pm 13:15 Cloudy 80 26.6 62 16.9 55 55 ESE 6 9 29.75 1007 10 16 N/A
1:35 pm 13:35 Mostly Cloudy 80 26.8 63 17.2 56 56 ESE 7 11 29.74 1007 10 16 N/A
1:55 pm 13:55 Mostly Cloudy 81 27.1 63 17.4 55 55 SE 6 9 29.72 1007 10 16 N/A
2:15 pm 14:15 Mostly Cloudy 80 26.6 63 17.1 56 56 SSE 8 13 29.72 1006 10 16 N/A
2:35 pm 14:35 Mostly Cloudy with Light Rain 79 25.9 66 19 66 66 ESE 7 11 29.70 1006 10 16 N/A
2:55 pm 14:55 Partly Cloudy with Nearby Thunderstorms 79 26.3 67 19.3 65 65 N 10 17 29.70 1006 10 16 N/A
3:15 pm 15:15 Mostly Cloudy 78 25.8 67 19.7 69 69 NNE 12 19 29.70 1006 10 16 N/A
3:35 pm 15:35 Mostly Cloudy 77 25.1 67 19.6 72 72 N 10 17 29.71 1006 10 16 N/A
3:55 pm 15:55 Partly Cloudy 78 25.3 66 19.1 69 69 NNE 10 17 29.70 1006 10 16 N/A
4:15 pm 16:15 Sunny 77 25.1 66 18.8 68 68 N 7 11 29.70 1006 10 16 N/A
4:35 pm 16:35 Partly Cloudy 77 24.9 66 19.1 70 70 NNE 7 11 29.70 1006 10 16 N/A
4:55 pm 16:55 Mostly Cloudy with Light Rain 75 23.7 66 18.7 74 74 NNW 10 17 29.71 1006 10 16 N/A
5:15 pm 17:15 Cloudy with Light Rain 69 20.8 64 17.8 83 83 NNW 15 24 29.75 1007 10 16 N/A
5:35 pm 17:35 Mostly Cloudy 73 22.9 63 17.3 71 71 NNW 16 26 29.73 1007 10 16 N/A
5:55 pm 17:55 Sunny 73 22.7 64 17.7 73 73 N 18 30 29.72 1006 10 16 N/A
6:15 pm 18:15 Sunny 73 22.5 63 17.4 73 73 N 15 24 29.73 1007 10 16 N/A
6:35 pm 18:35 Sunny 73 22.6 63 17.1 71 71 N 13 20 29.72 1006 10 16 N/A
6:55 pm 18:55 Sunny 73 23 63 17.2 70 70 N 13 20 29.73 1007 10 16 N/A
7:15 pm 19:15 Sunny 73 23 63 17.2 70 70 N 14 22 29.73 1007 10 16 N/A
7:35 pm 19:35 Sunny 73 22.6 62 16.6 69 69 NNW 13 20 29.73 1007 10 16 N/A
7:55 pm 19:55 Sunny 72 22 62 16.6 72 72 N 9 15 29.74 1007 10 16 N/A
8:15 pm 20:15 Sunny 71 21.6 63 17.1 76 76 N 9 15 29.74 1007 10 16 N/A
8:35 pm 20:35 Sunny 70 21.1 62 16.6 76 76 N 9 15 29.75 1008 10 16 N/A
8:55 pm 20:55 Sunny 69 20.5 63 17 80 80 N 6 9 29.75 1007 10 16 N/A
9:15 pm 21:15 Clear 68 20 63 17 83 83 N 8 13 29.76 1008 10 16 N/A
9:35 pm 21:35 Clear 67 19.4 63 17 86 86 N 7 11 29.78 1008 10 16 N/A
9:55 pm 21:55 Clear 66 19 62 16.6 86 86 N 9 15 29.80 1009 10 16 N/A
10:15 pm 22:15 Clear 65 18.5 61 16.3 87 87 N 6 9 29.81 1009 10 16 N/A
10:35 pm 22:35 Clear 64 18 61 16 88 88 NNW 7 11 29.81 1009 10 16 N/A
10:55 pm 22:55 Clear 64 17.6 60 15.8 89 89 NNW 10 17 29.81 1010 10 16 N/A
11:15 pm 23:15 Clear 64 17.5 60 15.7 89 89 N 8 13 29.82 1010 10 16 N/A
11:35 pm 23:35 Clear 63 17.3 60 15.8 91 91 NNW 7 11 29.83 1010 10 16 N/A
11:55 pm 23:55 Clear 63 17.2 60 15.7 91 91 NW 5 7 29.83 1010 10 16 N/A

Powered by AerisWeather